Preview of NWS' New Version of Forecast
This preview is not operational and should not be used for support decisions.

Regional Weather Roundup (RWR)

Issued by National Weather Service (NWS)

                            
000
ASUS43 KLSX 222257
RWRMO 

WEATHER SUMMARY FOR MISSOURI
NATIONAL WEATHER SERVICE SPRINGFIELD MO
600 PM CDT WED MAY 22 2019

NOTE: "FAIR" INDICATES FEW OR NO CLOUDS BELOW 12,000 FEET WITH NO
       SIGNIFICANT WEATHER AND/OR OBSTRUCTIONS TO VISIBILITY.
       CURRENT SKY AND/OR WEATHER CONDITIONS ARE NOT AVAILABLE FOR
       CHILLICOTHE AND FARMINGTON.

MOZ001>031-035>038-043-044-053-054-230000-
...NORTHERN AND WESTERN MISSOURI...
  
CITY           SKY/WX    TMP DP  RH WIND       PRES   REMARKS
KANSAS CTY INT CLOUDY    71  58  63 W6        29.81R                  
LEE'S SUMMIT   CLOUDY    70  62  76 W5        29.81R                  
ST JOSEPH      SUNNY     73  52  47 SW13      29.80R                  
CHILLICOTHE      N/A     74  59  59 VRB5      29.80R                  
     
$$
MOZ066>068-077>081-088>096-101>105-230000-
...SOUTHWEST MISSOURI...
  
CITY           SKY/WX    TMP DP  RH WIND       PRES   REMARKS
SPRINGFIELD    MOSUNNY   84  68  58 S15G22    29.83R                  
JOPLIN         MOSUNNY   81  70  69 S16G24    29.79S                  
BRANSON        MOSUNNY   82  68  61 S12G22    29.88R                  
               
$$
MOZ032>034-039>042-045>050-055>058-069>072-230000-
...CENTRAL MISSOURI...  
  
CITY           SKY/WX    TMP DP  RH WIND       PRES   REMARKS
COLUMBIA       NOT AVBL                                               
ROLLA          MOSUNNY   83  66  56 S18G26    29.85R                  
SEDALIA        SUNNY     77  69  76 SW6       29.81R                  
WARRENSBURG    PTSUNNY   77  66  69 S5        29.79S                  
               
$$
MOZ051-052-059>065-230000-
...EAST CENTRAL MISSOURI...
  
CITY           SKY/WX    TMP DP  RH WIND       PRES   REMARKS
ST LOUIS INTL  PTSUNNY   84  62  47 S14       29.86S                  
                   
$$
MOZ072>076-082>087-097>100-106>115-230000-
...SOUTH CENTRAL AND SOUTHEAST MISSOURI...
  
CITY           SKY/WX    TMP DP  RH WIND       PRES   REMARKS
CAPE GIRARDEAU FAIR      82  72  71 S12       29.93S                  
POPLAR BLUFF   FAIR      83  75  77 S8        29.91F HX  90           
WEST PLAINS    MOSUNNY   82  70  66 S14G22    29.91S                  
                                       
$$